Time,TemperatureF,DewpointF,PressureIn,WindDirection,WindDirectionDegrees,WindSpeedMPH,WindSpeedGustMPH,Humidity,HourlyPrecipIn,Conditions,Clouds,dailyrainin,SoftwareType,DateUTC
2013-06-20 00:01:00,69.6,64.9,30.01,NE,42,0.0,0.0,85,0.00,,,0.00,VWS V13.01,2013-06-20 05:01:00,
2013-06-20 00:06:00,69.4,65.4,30.01,NE,42,0.0,0.0,87,0.00,,,0.00,VWS V13.01,2013-06-20 05:06:00,
2013-06-20 00:10:00,69.2,65.5,30.01,NE,42,0.0,0.0,88,0.00,,,0.00,VWS V13.01,2013-06-20 05:10:00,
2013-06-20 00:15:00,69.1,65.7,29.98,NE,42,0.0,0.0,89,0.00,,,0.00,VWS V13.01,2013-06-20 05:15:00,
2013-06-20 00:20:00,68.5,65.5,29.98,NE,42,0.0,0.0,90,0.00,,,0.00,VWS V13.01,2013-06-20 05:20:00,
2013-06-20 00:25:00,68.3,65.6,29.98,NE,42,0.0,0.0,91,0.00,,,0.00,VWS V13.01,2013-06-20 05:25:00,
2013-06-20 00:30:00,68.3,66.2,29.98,NE,42,0.0,0.0,93,0.00,,,0.00,VWS V13.01,2013-06-20 05:30:00,
2013-06-20 00:35:00,68.0,66.5,29.98,NE,42,0.0,0.0,95,0.00,,,0.00,VWS V13.01,2013-06-20 05:35:00,
2013-06-20 00:40:00,67.8,66.9,29.98,NE,42,0.0,0.0,97,0.00,,,0.00,VWS V13.01,2013-06-20 05:40:00,
2013-06-20 00:45:00,67.6,66.7,30.01,NE,42,0.0,0.0,97,0.00,,,0.00,VWS V13.01,2013-06-20 05:45:00,
2013-06-20 00:50:00,67.6,67.0,30.01,NE,42,0.0,0.0,98,0.00,,,0.00,VWS V13.01,2013-06-20 05:50:00,
2013-06-20 00:55:00,67.6,67.0,30.01,NE,42,0.0,0.0,98,0.00,,,0.00,VWS V13.01,2013-06-20 05:55:00,
2013-06-20 01:00:00,67.4,66.6,29.98,NE,42,0.0,0.0,97,0.00,,,0.00,VWS V13.01,2013-06-20 06:00:00,
2013-06-20 01:05:00,67.6,66.7,29.98,NE,42,0.0,0.0,97,0.00,,,0.00,VWS V13.01,2013-06-20 06:05:00,
2013-06-20 01:10:00,67.4,66.9,29.98,NE,42,0.0,0.0,98,0.00,,,0.00,VWS V13.01,2013-06-20 06:10:00,
2013-06-20 01:15:00,67.3,66.7,29.98,NE,42,0.0,0.0,98,0.00,,,0.00,VWS V13.01,2013-06-20 06:15:00,
2013-06-20 01:20:00,67.1,66.2,29.98,NE,42,0.0,0.0,97,0.00,,,0.00,VWS V13.01,2013-06-20 06:20:00,
2013-06-20 01:25:00,67.3,66.4,29.98,NE,42,0.0,0.0,97,0.00,,,0.00,VWS V13.01,2013-06-20 06:25:00,
2013-06-20 01:30:00,67.3,66.4,29.98,NE,42,0.0,0.0,97,0.00,,,0.00,VWS V13.01,2013-06-20 06:30:00,
2013-06-20 01:35:00,67.1,65.9,29.98,NE,42,0.0,0.0,96,0.00,,,0.00,VWS V13.01,2013-06-20 06:35:00,
2013-06-20 01:40:00,67.1,65.6,29.98,NE,42,0.0,0.0,95,0.00,,,0.00,VWS V13.01,2013-06-20 06:40:00,
2013-06-20 01:45:00,67.1,65.6,29.98,NE,42,0.0,0.0,95,0.00,,,0.00,VWS V13.01,2013-06-20 06:45:00,
2013-06-20 01:50:00,66.9,65.7,29.98,NE,42,0.0,0.0,96,0.00,,,0.00,VWS V13.01,2013-06-20 06:50:00,
2013-06-20 01:55:00,66.9,65.4,29.98,NE,42,0.0,0.0,95,0.00,,,0.00,VWS V13.01,2013-06-20 06:55:00,
2013-06-20 02:00:00,66.7,65.2,29.98,NE,42,0.0,0.0,95,0.00,,,0.00,VWS V13.01,2013-06-20 07:00:00,
2013-06-20 02:05:00,66.7,65.8,29.98,NE,42,0.0,0.0,97,0.00,,,0.00,VWS V13.01,2013-06-20 07:05:00,
2013-06-20 02:10:00,66.7,66.1,29.98,NE,42,0.0,0.0,98,0.00,,,0.00,VWS V13.01,2013-06-20 07:10:00,
2013-06-20 02:15:00,66.5,66.2,29.98,NE,42,0.0,0.0,99,0.00,,,0.00,VWS V13.01,2013-06-20 07:15:00,
2013-06-20 02:20:00,66.5,66.2,29.98,NE,42,0.0,0.0,99,0.00,,,0.00,VWS V13.01,2013-06-20 07:20:00,
2013-06-20 02:25:00,66.5,66.2,29.98,NE,42,0.0,0.0,99,0.00,,,0.00,VWS V13.01,2013-06-20 07:25:00,
2013-06-20 02:30:00,66.4,65.8,29.98,NE,42,0.0,0.0,98,0.00,,,0.00,VWS V13.01,2013-06-20 07:30:00,
2013-06-20 02:35:00,66.4,65.8,29.98,NE,42,0.0,0.0,98,0.00,,,0.00,VWS V13.01,2013-06-20 07:35:00,
2013-06-20 02:40:00,66.4,65.8,29.98,NE,42,0.0,0.0,98,0.00,,,0.00,VWS V13.01,2013-06-20 07:40:00,
2013-06-20 02:45:00,66.4,66.1,29.98,NE,42,0.0,0.0,99,0.00,,,0.00,VWS V13.01,2013-06-20 07:45:00,
2013-06-20 02:50:00,66.2,65.9,29.98,NE,42,0.0,0.0,99,0.00,,,0.00,VWS V13.01,2013-06-20 07:50:00,
2013-06-20 02:55:00,66.2,65.9,29.98,NE,42,0.0,0.0,99,0.00,,,0.00,VWS V13.01,2013-06-20 07:55:00,
2013-06-20 03:00:00,66.0,65.7,29.95,NE,42,0.0,0.0,99,0.00,,,0.00,VWS V13.01,2013-06-20 08:00:00,
2013-06-20 03:05:00,66.0,65.7,29.95,NE,42,0.0,0.0,99,0.00,,,0.00,VWS V13.01,2013-06-20 08:05:00,
2013-06-20 03:10:00,66.0,65.7,29.95,NE,42,0.0,0.0,99,0.00,,,0.00,VWS V13.01,2013-06-20 08:10:00,
2013-06-20 03:15:00,65.8,65.8,29.98,NE,42,0.0,0.0,100,0.00,,,0.00,VWS V13.01,2013-06-20 08:15:00,
2013-06-20 03:20:00,65.8,65.8,29.98,NE,42,0.0,0.0,100,0.00,,,0.00,VWS V13.01,2013-06-20 08:20:00,
2013-06-20 03:25:00,65.8,65.8,29.98,NE,42,0.0,0.0,100,0.00,,,0.00,VWS V13.01,2013-06-20 08:25:00,
2013-06-20 03:30:00,65.6,65.6,29.98,NE,42,0.0,0.0,100,0.00,,,0.00,VWS V13.01,2013-06-20 08:30:00,
2013-06-20 03:35:00,65.5,65.5,29.98,NE,42,0.0,0.0,100,0.00,,,0.00,VWS V13.01,2013-06-20 08:35:00,
2013-06-20 03:40:00,65.5,65.5,29.98,NE,42,0.0,0.0,100,0.00,,,0.00,VWS V13.01,2013-06-20 08:40:00,
2013-06-20 03:45:00,65.5,65.5,29.98,NE,42,0.0,0.0,100,0.00,,,0.00,VWS V13.01,2013-06-20 08:45:00,
2013-06-20 03:50:00,65.3,65.3,29.98,NE,42,0.0,0.0,100,0.00,,,0.00,VWS V13.01,2013-06-20 08:50:00,
2013-06-20 03:55:00,65.3,65.3,29.98,NE,42,0.0,0.0,100,0.00,,,0.00,VWS V13.01,2013-06-20 08:55:00,
2013-06-20 04:00:00,65.1,65.1,29.98,NE,42,0.0,0.0,100,0.00,,,0.00,VWS V13.01,2013-06-20 09:00:00,
2013-06-20 04:05:00,65.1,65.1,29.98,NE,42,0.0,0.0,100,0.00,,,0.00,VWS V13.01,2013-06-20 09:05:00,
2013-06-20 04:10:00,65.1,65.1,29.98,NE,42,0.0,0.0,100,0.00,,,0.00,VWS V13.01,2013-06-20 09:10:00,
2013-06-20 04:15:00,64.9,64.9,29.98,NE,42,0.0,0.0,100,0.00,,,0.00,VWS V13.01,2013-06-20 09:15:00,
2013-06-20 04:20:00,64.7,64.7,29.98,NE,42,0.0,0.0,100,0.00,,,0.00,VWS V13.01,2013-06-20 09:20:00,
2013-06-20 04:25:00,64.7,64.7,29.98,NE,42,0.0,0.0,100,0.00,,,0.00,VWS V13.01,2013-06-20 09:25:00,
2013-06-20 04:30:00,64.7,64.7,29.98,NE,42,0.0,0.0,100,0.00,,,0.00,VWS V13.01,2013-06-20 09:30:00,
2013-06-20 04:35:00,64.7,64.7,29.98,NE,42,0.0,0.0,100,0.00,,,0.00,VWS V13.01,2013-06-20 09:35:00,
2013-06-20 04:40:00,64.6,64.6,29.98,NE,42,0.0,0.0,100,0.00,,,0.00,VWS V13.01,2013-06-20 09:40:00,
2013-06-20 04:45:00,64.6,64.6,29.98,NE,42,0.0,0.0,100,0.00,,,0.00,VWS V13.01,2013-06-20 09:45:00,
2013-06-20 04:50:00,64.4,64.4,29.98,NE,42,0.0,0.0,100,0.00,,,0.00,VWS V13.01,2013-06-20 09:50:00,
2013-06-20 04:55:00,64.4,64.4,29.98,NE,42,0.0,0.0,100,0.00,,,0.00,VWS V13.01,2013-06-20 09:55:00,
2013-06-20 05:00:00,64.4,64.4,30.01,NE,42,0.0,0.0,100,0.00,,,0.00,VWS V13.01,2013-06-20 10:00:00,
2013-06-20 05:05:00,64.4,64.4,30.01,NE,42,0.0,0.0,100,0.00,,,0.00,VWS V13.01,2013-06-20 10:05:00,
2013-06-20 05:10:00,64.2,64.2,30.01,NE,42,0.0,0.0,100,0.00,,,0.00,VWS V13.01,2013-06-20 10:10:00,
2013-06-20 05:15:00,64.4,64.4,30.01,NE,42,0.0,0.0,100,0.00,,,0.00,VWS V13.01,2013-06-20 10:15:00,
2013-06-20 05:20:00,64.2,64.2,30.01,NE,42,0.0,0.0,100,0.00,,,0.00,VWS V13.01,2013-06-20 10:20:00,
2013-06-20 05:25:00,64.2,64.2,30.01,NE,42,0.0,0.0,100,0.00,,,0.00,VWS V13.01,2013-06-20 10:25:00,
2013-06-20 05:30:00,64.2,64.2,30.01,NE,42,0.0,0.0,100,0.00,,,0.00,VWS V13.01,2013-06-20 10:30:00,
2013-06-20 05:35:00,64.2,64.2,30.01,NE,42,0.0,0.0,100,0.00,,,0.00,VWS V13.01,2013-06-20 10:35:00,
2013-06-20 05:40:00,64.0,64.0,30.01,NE,42,0.0,0.0,100,0.00,,,0.00,VWS V13.01,2013-06-20 10:40:00,
2013-06-20 05:45:00,64.0,64.0,30.01,NE,42,0.0,0.0,100,0.00,,,0.00,VWS V13.01,2013-06-20 10:45:00,
2013-06-20 05:50:00,64.0,64.0,30.01,NE,42,0.0,0.0,100,0.00,,,0.00,VWS V13.01,2013-06-20 10:50:00,
2013-06-20 05:55:00,64.0,64.0,30.01,NE,42,0.0,0.0,100,0.00,,,0.00,VWS V13.01,2013-06-20 10:55:00,
2013-06-20 06:00:00,64.0,64.0,30.01,NE,42,0.0,0.0,100,0.00,,,0.00,VWS V13.01,2013-06-20 11:00:00,
2013-06-20 06:05:00,64.0,64.0,30.01,NE,42,0.0,0.0,100,0.00,,,0.00,VWS V13.01,2013-06-20 11:05:00,
2013-06-20 06:10:00,64.0,64.0,30.01,NE,42,0.0,0.0,100,0.00,,,0.00,VWS V13.01,2013-06-20 11:10:00,
2013-06-20 06:15:00,63.8,63.8,30.01,NE,42,0.0,0.0,100,0.00,,,0.00,VWS V13.01,2013-06-20 11:15:00,
2013-06-20 06:20:00,63.8,63.8,30.01,NE,42,0.0,0.0,100,0.00,,,0.00,VWS V13.01,2013-06-20 11:20:00,
2013-06-20 06:24:00,63.8,63.8,30.01,NE,42,0.0,0.0,100,0.00,,,0.00,VWS V13.01,2013-06-20 11:24:00,
2013-06-20 06:29:00,64.0,64.0,30.01,NE,42,0.0,0.0,100,0.00,,,0.00,VWS V13.01,2013-06-20 11:29:00,
2013-06-20 06:34:00,64.0,64.0,30.01,NE,42,0.0,0.0,100,0.00,,,0.00,VWS V13.01,2013-06-20 11:34:00,
2013-06-20 06:39:00,64.2,64.2,30.01,NE,42,0.0,0.0,100,0.00,,,0.00,VWS V13.01,2013-06-20 11:39:00,
2013-06-20 06:44:00,64.2,64.2,30.01,NE,42,0.0,0.0,100,0.00,,,0.00,VWS V13.01,2013-06-20 11:44:00,
2013-06-20 06:49:00,64.2,64.2,30.01,NE,42,0.0,0.0,100,0.00,,,0.00,VWS V13.01,2013-06-20 11:49:00,
2013-06-20 06:54:00,64.6,64.6,30.01,NE,42,0.0,0.0,100,0.00,,,0.00,VWS V13.01,2013-06-20 11:54:00,
2013-06-20 06:59:00,64.9,64.9,30.01,NE,42,0.0,0.0,100,0.00,,,0.00,VWS V13.01,2013-06-20 11:59:00,
2013-06-20 07:04:00,65.5,65.5,30.01,NE,42,0.0,0.0,100,0.00,,,0.00,VWS V13.01,2013-06-20 12:04:00,
2013-06-20 07:09:00,66.0,66.0,30.01,NE,42,0.0,0.0,100,0.00,,,0.00,VWS V13.01,2013-06-20 12:09:00,
2013-06-20 07:14:00,66.5,66.5,30.04,NE,34,0.0,0.0,100,0.00,,,0.00,VWS V13.01,2013-06-20 12:14:00,
2013-06-20 07:19:00,67.1,67.1,30.04,NNE,33,0.0,0.0,100,0.00,,,0.00,VWS V13.01,2013-06-20 12:19:00,
2013-06-20 07:24:00,67.6,67.6,30.04,NE,34,0.0,0.0,100,0.00,,,0.00,VWS V13.01,2013-06-20 12:24:00,
2013-06-20 07:29:00,68.0,68.0,30.04,NNE,33,0.0,0.0,100,0.00,,,0.00,VWS V13.01,2013-06-20 12:29:00,
2013-06-20 07:34:00,68.9,68.9,30.04,NE,34,0.0,0.0,100,0.00,,,0.00,VWS V13.01,2013-06-20 12:34:00,
2013-06-20 07:39:00,70.0,70.0,30.04,NE,34,0.0,0.0,100,0.00,,,0.00,VWS V13.01,2013-06-20 12:39:00,
2013-06-20 07:44:00,70.9,70.9,30.04,NE,34,0.0,0.0,100,0.00,,,0.00,VWS V13.01,2013-06-20 12:44:00,
2013-06-20 07:49:00,70.9,70.3,30.04,NNE,33,0.0,0.0,98,0.00,,,0.00,VWS V13.01,2013-06-20 12:49:00,
2013-06-20 07:54:00,72.1,71.5,30.04,NNE,29,3.1,3.1,98,0.00,,,0.00,VWS V13.01,2013-06-20 12:54:00,
2013-06-20 07:59:00,72.8,66.7,30.04,ENE,60,2.2,2.2,81,0.00,,,0.00,VWS V13.01,2013-06-20 12:59:00,
2013-06-20 08:04:00,73.7,65.3,30.04,NE,56,3.1,3.1,75,0.00,,,0.00,VWS V13.01,2013-06-20 13:04:00,
2013-06-20 08:09:00,74.5,65.6,30.04,NE,38,0.0,2.7,74,0.00,,,0.00,VWS V13.01,2013-06-20 13:09:00,
2013-06-20 08:14:00,74.8,66.8,30.04,East,83,2.7,2.7,76,0.00,,,0.00,VWS V13.01,2013-06-20 13:14:00,
2013-06-20 08:19:00,75.2,64.7,30.04,NE,54,2.7,3.1,70,0.00,,,0.00,VWS V13.01,2013-06-20 13:19:00,
2013-06-20 08:24:00,75.5,64.2,30.04,NNE,12,4.0,4.0,68,0.00,,,0.00,VWS V13.01,2013-06-20 13:24:00,
2013-06-20 08:29:00,75.7,65.2,30.04,NE,55,2.7,3.6,70,0.00,,,0.00,VWS V13.01,2013-06-20 13:29:00,
2013-06-20 08:34:00,76.1,64.8,30.04,ENE,69,3.1,4.9,68,0.00,,,0.00,VWS V13.01,2013-06-20 13:34:00,
2013-06-20 08:39:00,76.3,64.5,30.04,ENE,58,3.1,3.1,67,0.00,,,0.00,VWS V13.01,2013-06-20 13:39:00,
2013-06-20 08:44:00,76.4,64.2,30.04,NE,43,4.9,4.9,66,0.00,,,0.00,VWS V13.01,2013-06-20 13:44:00,
2013-06-20 08:49:00,76.4,64.7,30.04,ENE,61,3.1,3.1,67,0.00,,,0.00,VWS V13.01,2013-06-20 13:49:00,
2013-06-20 08:54:00,77.0,64.3,30.04,NE,41,3.6,6.3,65,0.00,,,0.00,VWS V13.01,2013-06-20 13:54:00,
2013-06-20 08:59:00,77.2,64.5,30.04,ESE,110,0.0,3.1,65,0.00,,,0.00,VWS V13.01,2013-06-20 13:59:00,
2013-06-20 09:04:00,77.7,64.6,30.04,East,89,4.0,4.0,64,0.00,,,0.00,VWS V13.01,2013-06-20 14:04:00,
2013-06-20 09:09:00,77.3,64.2,30.04,SE,132,2.2,2.7,64,0.00,,,0.00,VWS V13.01,2013-06-20 14:09:00,
2013-06-20 09:14:00,77.7,64.6,30.04,North,7,0.0,2.7,64,0.00,,,0.00,VWS V13.01,2013-06-20 14:14:00,
2013-06-20 09:19:00,78.6,64.5,30.04,NNE,20,4.0,4.0,62,0.00,,,0.00,VWS V13.01,2013-06-20 14:19:00,
2013-06-20 09:24:00,78.8,64.7,30.04,North,356,2.2,3.1,62,0.00,,,0.00,VWS V13.01,2013-06-20 14:24:00,
2013-06-20 09:29:00,79.0,64.8,30.07,ESE,107,4.5,5.4,62,0.00,,,0.00,VWS V13.01,2013-06-20 14:29:00,
2013-06-20 09:34:00,78.6,65.0,30.07,East,81,3.1,3.6,63,0.00,,,0.00,VWS V13.01,2013-06-20 14:34:00,
2013-06-20 09:39:00,79.3,65.2,30.07,NE,38,3.6,5.8,62,0.00,,,0.00,VWS V13.01,2013-06-20 14:39:00,
2013-06-20 09:44:00,79.3,64.7,30.07,SSE,155,6.3,10.1,61,0.00,,,0.00,VWS V13.01,2013-06-20 14:44:00,
2013-06-20 09:49:00,79.1,65.5,30.07,East,95,4.9,6.3,63,0.00,,,0.00,VWS V13.01,2013-06-20 14:49:00,
2013-06-20 09:54:00,79.3,65.6,30.07,East,85,3.1,4.0,63,0.00,,,0.00,VWS V13.01,2013-06-20 14:54:00,
2013-06-20 09:59:00,79.5,65.3,30.07,SE,129,5.4,7.6,62,0.00,,,0.00,VWS V13.01,2013-06-20 14:59:00,
2013-06-20 10:04:00,79.3,65.2,30.07,NNE,15,3.1,3.6,62,0.00,,,0.00,VWS V13.01,2013-06-20 15:04:00,
2013-06-20 10:09:00,79.9,65.7,30.07,East,101,0.0,2.7,62,0.00,,,0.00,VWS V13.01,2013-06-20 15:09:00,
2013-06-20 10:14:00,80.8,66.1,30.07,East,94,3.6,5.4,61,0.00,,,0.00,VWS V13.01,2013-06-20 15:14:00,
2013-06-20 10:19:00,81.1,66.4,30.07,ESE,112,2.7,3.6,61,0.00,,,0.00,VWS V13.01,2013-06-20 15:19:00,
2013-06-20 10:24:00,81.5,66.8,30.07,North,351,2.7,3.6,61,0.00,,,0.00,VWS V13.01,2013-06-20 15:24:00,
2013-06-20 10:29:00,82.4,66.6,30.07,North,3,3.1,3.1,59,0.00,,,0.00,VWS V13.01,2013-06-20 15:29:00,
2013-06-20 10:34:00,83.1,66.3,30.07,East,97,3.6,3.6,57,0.00,,,0.00,VWS V13.01,2013-06-20 15:34:00,
2013-06-20 10:39:00,82.9,66.6,30.07,ESE,114,3.1,4.9,58,0.00,,,0.00,VWS V13.01,2013-06-20 15:39:00,
2013-06-20 10:44:00,81.8,66.1,30.07,SE,133,2.7,3.6,59,0.00,,,0.00,VWS V13.01,2013-06-20 15:44:00,
2013-06-20 10:49:00,81.5,65.8,30.07,ENE,76,3.1,4.0,59,0.00,,,0.00,VWS V13.01,2013-06-20 15:49:00,
2013-06-20 10:54:00,81.7,66.4,30.07,ENE,77,4.0,6.3,60,0.00,,,0.00,VWS V13.01,2013-06-20 15:54:00,
2013-06-20 10:59:00,82.0,66.8,30.07,SE,134,3.1,3.6,60,0.00,,,0.00,VWS V13.01,2013-06-20 15:59:00,
2013-06-20 11:04:00,82.0,66.3,30.07,East,98,3.6,5.8,59,0.00,,,0.00,VWS V13.01,2013-06-20 16:04:00,
2013-06-20 11:09:00,82.6,66.3,30.07,SE,136,3.1,7.2,58,0.00,,,0.00,VWS V13.01,2013-06-20 16:09:00,
2013-06-20 11:14:00,82.7,65.5,30.07,ENE,70,4.0,4.9,56,0.00,,,0.00,VWS V13.01,2013-06-20 16:14:00,
2013-06-20 11:19:00,82.6,67.3,30.07,ENE,63,5.4,5.4,60,0.00,,,0.00,VWS V13.01,2013-06-20 16:19:00,
2013-06-20 11:24:00,83.3,67.5,30.07,SE,128,2.7,3.1,59,0.00,,,0.00,VWS V13.01,2013-06-20 16:24:00,
2013-06-20 11:29:00,83.5,67.1,30.07,NE,56,4.9,4.9,58,0.00,,,0.00,VWS V13.01,2013-06-20 16:29:00,
2013-06-20 11:34:00,84.4,67.5,30.07,ENE,66,7.6,7.6,57,0.00,,,0.00,VWS V13.01,2013-06-20 16:34:00,
2013-06-20 11:39:00,84.4,66.4,30.07,SE,131,5.4,7.6,55,0.00,,,0.00,VWS V13.01,2013-06-20 16:39:00,
2013-06-20 11:44:00,83.6,65.2,30.07,East,85,5.4,5.4,54,0.00,,,0.00,VWS V13.01,2013-06-20 16:44:00,
2013-06-20 11:49:00,83.6,65.8,30.07,ESE,120,5.4,7.6,55,0.00,,,0.00,VWS V13.01,2013-06-20 16:49:00,
2013-06-20 11:54:00,84.0,65.6,30.07,East,88,8.1,8.1,54,0.00,,,0.00,VWS V13.01,2013-06-20 16:54:00,
2013-06-20 11:59:00,84.2,65.8,30.07,East,82,6.3,8.1,54,0.00,,,0.00,VWS V13.01,2013-06-20 16:59:00,
2013-06-20 12:04:00,84.0,65.6,30.07,ESE,121,5.4,10.1,54,0.00,,,0.00,VWS V13.01,2013-06-20 17:04:00,
2013-06-20 12:09:00,84.2,67.3,30.07,ENE,63,6.3,6.3,57,0.00,,,0.00,VWS V13.01,2013-06-20 17:09:00,
2013-06-20 12:14:00,84.7,65.7,30.07,ESE,112,2.7,7.6,53,0.00,,,0.00,VWS V13.01,2013-06-20 17:14:00,
2013-06-20 12:19:00,84.7,65.7,30.07,ENE,69,8.1,8.1,53,0.00,,,0.00,VWS V13.01,2013-06-20 17:19:00,
2013-06-20 12:24:00,84.9,66.4,30.07,ESE,110,6.3,8.3,54,0.00,,,0.00,VWS V13.01,2013-06-20 17:24:00,
2013-06-20 12:29:00,84.4,65.4,30.04,ENE,69,7.6,8.3,53,0.00,,,0.00,VWS V13.01,2013-06-20 17:29:00,
2013-06-20 12:34:00,84.2,65.8,30.04,East,80,5.4,6.3,54,0.00,,,0.00,VWS V13.01,2013-06-20 17:34:00,
2013-06-20 12:39:00,84.5,65.5,30.04,ESE,120,6.3,10.5,53,0.00,,,0.00,VWS V13.01,2013-06-20 17:39:00,
2013-06-20 12:44:00,84.7,66.8,30.04,SE,134,3.6,5.4,55,0.00,,,0.00,VWS V13.01,2013-06-20 17:44:00,
2013-06-20 12:49:00,85.3,65.7,30.04,NE,54,5.4,7.2,52,0.00,,,0.00,VWS V13.01,2013-06-20 17:49:00,
2013-06-20 12:53:00,85.1,66.0,30.04,ENE,73,4.0,5.4,53,0.00,,,0.00,VWS V13.01,2013-06-20 17:53:00,
2013-06-20 12:58:00,85.3,66.8,30.04,SE,143,2.7,4.9,54,0.00,,,0.00,VWS V13.01,2013-06-20 17:58:00,
2013-06-20 13:03:00,85.8,66.2,30.04,ESE,103,6.3,7.6,52,0.00,,,0.00,VWS V13.01,2013-06-20 18:03:00,
2013-06-20 13:09:00,85.6,66.0,30.04,ESE,110,5.4,7.6,52,0.00,,,0.00,VWS V13.01,2013-06-20 18:09:00,
2013-06-20 13:13:00,85.4,65.8,30.04,ENE,67,2.7,7.6,52,0.00,,,0.00,VWS V13.01,2013-06-20 18:13:00,
2013-06-20 13:18:00,85.4,65.8,30.04,ENE,65,5.4,8.1,52,0.00,,,0.00,VWS V13.01,2013-06-20 18:18:00,
2013-06-20 13:23:00,86.0,66.9,30.04,ESE,121,5.4,5.8,53,0.00,,,0.00,VWS V13.01,2013-06-20 18:23:00,
2013-06-20 13:28:00,86.0,65.8,30.04,SSE,147,4.0,5.4,51,0.00,,,0.00,VWS V13.01,2013-06-20 18:28:00,
2013-06-20 13:33:00,85.6,65.4,30.04,ESE,123,5.8,8.1,51,0.00,,,0.00,VWS V13.01,2013-06-20 18:33:00,
2013-06-20 13:38:00,86.2,65.4,30.04,NNE,25,3.1,5.8,50,0.00,,,0.00,VWS V13.01,2013-06-20 18:38:00,
2013-06-20 13:43:00,87.1,66.2,30.04,ESE,119,3.6,4.0,50,0.00,,,0.00,VWS V13.01,2013-06-20 18:43:00,
2013-06-20 13:48:00,87.6,66.1,30.04,East,80,4.9,5.4,49,0.00,,,0.00,VWS V13.01,2013-06-20 18:48:00,
2013-06-20 13:53:00,87.1,66.2,30.04,East,82,11.0,11.0,50,0.00,,,0.00,VWS V13.01,2013-06-20 18:53:00,
2013-06-20 13:58:00,86.7,65.9,30.04,ESE,119,4.0,4.0,50,0.00,,,0.00,VWS V13.01,2013-06-20 18:58:00,
2013-06-20 14:03:00,86.9,66.6,30.04,NE,51,4.0,11.0,51,0.00,,,0.00,VWS V13.01,2013-06-20 19:03:00,
2013-06-20 14:08:00,87.1,66.8,30.04,NNE,20,2.7,4.0,51,0.00,,,0.00,VWS V13.01,2013-06-20 19:08:00,
2013-06-20 14:13:00,87.6,66.7,30.04,ENE,70,8.1,8.1,50,0.00,,,0.00,VWS V13.01,2013-06-20 19:13:00,
2013-06-20 14:18:00,87.2,65.8,30.04,ENE,65,7.6,8.3,49,0.00,,,0.00,VWS V13.01,2013-06-20 19:18:00,
2013-06-20 14:23:00,86.7,65.9,30.04,SE,135,4.0,5.8,50,0.00,,,0.00,VWS V13.01,2013-06-20 19:23:00,
2013-06-20 14:28:00,87.2,66.9,30.01,ENE,75,4.9,4.9,51,0.00,,,0.00,VWS V13.01,2013-06-20 19:28:00,
2013-06-20 14:33:00,87.4,66.5,30.01,ENE,63,5.8,5.8,50,0.00,,,0.00,VWS V13.01,2013-06-20 19:33:00,
2013-06-20 14:38:00,87.8,66.3,30.01,ENE,64,3.6,3.6,49,0.00,,,0.00,VWS V13.01,2013-06-20 19:38:00,
2013-06-20 14:43:00,87.6,66.1,30.01,SE,126,5.4,5.4,49,0.00,,,0.00,VWS V13.01,2013-06-20 19:43:00,
2013-06-20 14:48:00,88.0,67.0,30.01,NE,45,2.7,4.0,50,0.00,,,0.00,VWS V13.01,2013-06-20 19:48:00,
2013-06-20 14:53:00,88.3,66.8,30.01,ESE,115,6.3,6.3,49,0.00,,,0.00,VWS V13.01,2013-06-20 19:53:00,
2013-06-20 14:58:00,88.1,65.4,30.01,ESE,114,4.9,6.3,47,0.00,,,0.00,VWS V13.01,2013-06-20 19:58:00,
2013-06-20 15:03:00,88.0,65.8,30.01,ENE,66,5.4,5.4,48,0.00,,,0.00,VWS V13.01,2013-06-20 20:03:00,
2013-06-20 15:08:00,88.1,66.0,30.01,ESE,119,4.0,4.0,48,0.00,,,0.00,VWS V13.01,2013-06-20 20:08:00,
2013-06-20 15:13:00,88.5,66.3,30.01,North,350,3.1,3.1,48,0.00,,,0.00,VWS V13.01,2013-06-20 20:13:00,
2013-06-20 15:18:00,89.0,66.8,30.01,SE,138,2.7,8.3,48,0.00,,,0.00,VWS V13.01,2013-06-20 20:18:00,
2013-06-20 15:23:00,89.0,66.8,30.01,SSE,159,3.1,4.0,48,0.00,,,0.00,VWS V13.01,2013-06-20 20:23:00,
2013-06-20 15:28:00,88.9,66.7,30.01,SE,126,5.4,6.3,48,0.00,,,0.00,VWS V13.01,2013-06-20 20:28:00,
2013-06-20 15:33:00,88.1,65.4,30.01,ENE,57,5.4,5.4,47,0.00,,,0.00,VWS V13.01,2013-06-20 20:33:00,
2013-06-20 15:38:00,88.3,66.2,30.01,East,98,3.6,3.6,48,0.00,,,0.00,VWS V13.01,2013-06-20 20:38:00,
2013-06-20 15:43:00,88.7,66.5,30.01,ENE,78,4.0,4.0,48,0.00,,,0.00,VWS V13.01,2013-06-20 20:43:00,
2013-06-20 15:48:00,88.7,66.5,30.01,East,82,5.8,6.3,48,0.00,,,0.00,VWS V13.01,2013-06-20 20:48:00,
2013-06-20 15:53:00,88.5,66.3,30.01,East,99,4.0,4.0,48,0.00,,,0.00,VWS V13.01,2013-06-20 20:53:00,
2013-06-20 15:58:00,88.7,66.5,30.01,ESE,108,5.8,5.8,48,0.00,,,0.00,VWS V13.01,2013-06-20 20:58:00,
2013-06-20 16:03:00,88.5,66.3,30.01,East,80,5.8,6.3,48,0.00,,,0.00,VWS V13.01,2013-06-20 21:03:00,
2013-06-20 16:08:00,88.5,66.3,30.01,SE,132,4.0,4.9,48,0.00,,,0.00,VWS V13.01,2013-06-20 21:08:00,
2013-06-20 16:13:00,88.7,65.9,30.01,East,82,8.3,8.3,47,0.00,,,0.00,VWS V13.01,2013-06-20 21:13:00,
2013-06-20 16:18:00,88.5,66.3,30.01,SSE,147,5.4,5.4,48,0.00,,,0.00,VWS V13.01,2013-06-20 21:18:00,
2013-06-20 16:23:00,88.3,66.2,30.01,SE,124,4.0,8.3,48,0.00,,,0.00,VWS V13.01,2013-06-20 21:23:00,
2013-06-20 16:28:00,88.1,65.4,30.01,NE,49,5.4,6.3,47,0.00,,,0.00,VWS V13.01,2013-06-20 21:28:00,
2013-06-20 16:33:00,88.3,66.2,29.98,ESE,108,5.8,5.8,48,0.00,,,0.00,VWS V13.01,2013-06-20 21:33:00,
2013-06-20 16:38:00,88.5,66.3,29.98,ENE,63,4.0,6.3,48,0.00,,,0.00,VWS V13.01,2013-06-20 21:38:00,
2013-06-20 16:43:00,88.7,66.5,29.98,NNE,25,5.4,6.3,48,0.00,,,0.00,VWS V13.01,2013-06-20 21:43:00,
2013-06-20 16:48:00,88.5,65.7,29.98,ESE,102,7.6,7.6,47,0.00,,,0.00,VWS V13.01,2013-06-20 21:48:00,
2013-06-20 16:53:00,88.3,66.2,29.98,NE,48,3.1,5.4,48,0.00,,,0.00,VWS V13.01,2013-06-20 21:53:00,
2013-06-20 16:58:00,88.5,66.3,29.98,SE,128,3.6,3.6,48,0.00,,,0.00,VWS V13.01,2013-06-20 21:58:00,
2013-06-20 17:03:00,88.5,66.3,29.98,East,81,2.7,3.6,48,0.00,,,0.00,VWS V13.01,2013-06-20 22:03:00,
2013-06-20 17:08:00,88.7,67.1,29.98,NE,47,2.7,2.7,49,0.00,,,0.00,VWS V13.01,2013-06-20 22:08:00,
2013-06-20 17:13:00,88.9,67.2,29.98,ESE,116,3.6,3.6,49,0.00,,,0.00,VWS V13.01,2013-06-20 22:13:00,
2013-06-20 17:18:00,88.7,66.5,29.98,East,86,7.6,7.6,48,0.00,,,0.00,VWS V13.01,2013-06-20 22:18:00,
2013-06-20 17:23:00,88.3,66.2,29.98,East,97,4.0,4.0,48,0.00,,,0.00,VWS V13.01,2013-06-20 22:23:00,
2013-06-20 17:28:00,88.3,66.2,29.98,SSE,154,5.8,5.8,48,0.00,,,0.00,VWS V13.01,2013-06-20 22:28:00,
2013-06-20 17:33:00,88.1,66.0,29.98,ESE,110,3.1,5.8,48,0.00,,,0.00,VWS V13.01,2013-06-20 22:33:00,
2013-06-20 17:38:00,88.1,66.0,29.98,ESE,111,5.8,6.3,48,0.00,,,0.00,VWS V13.01,2013-06-20 22:38:00,
2013-06-20 17:43:00,88.1,66.0,29.98,ENE,65,3.6,4.0,48,0.00,,,0.00,VWS V13.01,2013-06-20 22:43:00,
2013-06-20 17:48:00,88.1,66.0,29.98,East,99,5.8,6.3,48,0.00,,,0.00,VWS V13.01,2013-06-20 22:48:00,
2013-06-20 17:53:00,88.0,65.8,29.98,ENE,75,3.6,4.0,48,0.00,,,0.00,VWS V13.01,2013-06-20 22:53:00,
2013-06-20 17:58:00,87.8,65.7,29.98,SSE,147,6.3,6.3,48,0.00,,,0.00,VWS V13.01,2013-06-20 22:58:00,
2013-06-20 18:03:00,87.8,66.3,29.98,East,97,3.1,3.6,49,0.00,,,0.00,VWS V13.01,2013-06-20 23:03:00,
2013-06-20 18:08:00,87.8,66.3,29.98,East,93,4.0,5.4,49,0.00,,,0.00,VWS V13.01,2013-06-20 23:08:00,
2013-06-20 18:13:00,87.8,65.7,29.98,East,86,7.6,7.6,48,0.00,,,0.00,VWS V13.01,2013-06-20 23:13:00,
2013-06-20 18:18:00,87.6,65.5,29.98,East,82,4.0,6.3,48,0.00,,,0.00,VWS V13.01,2013-06-20 23:18:00,
2013-06-20 18:23:00,87.4,65.9,29.98,East,91,5.4,6.3,49,0.00,,,0.00,VWS V13.01,2013-06-20 23:23:00,
2013-06-20 18:28:00,87.2,65.8,29.98,East,95,4.9,7.6,49,0.00,,,0.00,VWS V13.01,2013-06-20 23:28:00,
2013-06-20 18:33:00,87.1,65.6,29.95,East,84,5.4,5.4,49,0.00,,,0.00,VWS V13.01,2013-06-20 23:33:00,
2013-06-20 18:38:00,87.1,66.2,29.95,East,94,5.4,5.4,50,0.00,,,0.00,VWS V13.01,2013-06-20 23:38:00,
2013-06-20 18:43:00,86.9,66.0,29.95,East,84,2.7,5.8,50,0.00,,,0.00,VWS V13.01,2013-06-20 23:43:00,
2013-06-20 18:48:00,86.7,66.4,29.98,ESE,116,3.1,3.6,51,0.00,,,0.00,VWS V13.01,2013-06-20 23:48:00,
2013-06-20 18:53:00,86.7,66.4,29.98,East,87,2.2,3.1,51,0.00,,,0.00,VWS V13.01,2013-06-20 23:53:00,
2013-06-20 18:58:00,86.5,66.3,29.98,SE,127,2.2,2.2,51,0.00,,,0.00,VWS V13.01,2013-06-20 23:58:00,
2013-06-20 19:03:00,86.3,66.7,29.95,ESE,104,3.1,3.1,52,0.00,,,0.00,VWS V13.01,2013-06-21 00:03:00,
2013-06-20 19:08:00,86.2,66.5,29.95,ESE,119,4.9,5.4,52,0.00,,,0.00,VWS V13.01,2013-06-21 00:08:00,
2013-06-20 19:13:00,85.8,66.2,29.95,ESE,112,2.7,2.7,52,0.00,,,0.00,VWS V13.01,2013-06-21 00:13:00,
2013-06-20 19:18:00,85.6,66.5,29.98,ESE,117,2.7,2.7,53,0.00,,,0.00,VWS V13.01,2013-06-21 00:18:00,
2013-06-20 19:23:00,85.4,66.4,29.98,SE,128,2.2,2.2,53,0.00,,,0.00,VWS V13.01,2013-06-21 00:23:00,
2013-06-20 19:28:00,85.3,66.8,29.98,East,89,2.7,2.7,54,0.00,,,0.00,VWS V13.01,2013-06-21 00:28:00,
2013-06-20 19:33:00,85.1,66.0,29.95,ESE,118,0.0,2.2,53,0.00,,,0.00,VWS V13.01,2013-06-21 00:33:00,
2013-06-20 19:38:00,84.9,65.9,29.95,ESE,105,3.6,3.6,53,0.00,,,0.00,VWS V13.01,2013-06-21 00:38:00,
2013-06-20 19:43:00,84.7,66.8,29.95,ENE,65,2.7,2.7,55,0.00,,,0.00,VWS V13.01,2013-06-21 00:43:00,
2013-06-20 19:48:00,84.4,67.0,29.98,ENE,59,2.2,2.2,56,0.00,,,0.00,VWS V13.01,2013-06-21 00:48:00,
2013-06-20 19:53:00,84.2,66.8,29.98,ESE,110,2.7,2.7,56,0.00,,,0.00,VWS V13.01,2013-06-21 00:53:00,
2013-06-20 19:58:00,84.0,67.1,29.98,NE,54,2.7,2.7,57,0.00,,,0.00,VWS V13.01,2013-06-21 00:58:00,
2013-06-20 20:03:00,83.8,67.0,29.98,East,95,0.0,2.2,57,0.00,,,0.00,VWS V13.01,2013-06-21 01:03:00,
2013-06-20 20:08:00,83.6,66.8,29.98,ENE,76,0.0,2.2,57,0.00,,,0.00,VWS V13.01,2013-06-21 01:08:00,
2013-06-20 20:13:00,83.5,67.1,29.98,ENE,76,2.7,2.7,58,0.00,,,0.00,VWS V13.01,2013-06-21 01:13:00,
2013-06-20 20:18:00,83.3,67.5,29.98,East,83,2.7,2.7,59,0.00,,,0.00,VWS V13.01,2013-06-21 01:18:00,
2013-06-20 20:23:00,83.1,67.3,29.98,ENE,77,3.1,3.1,59,0.00,,,0.00,VWS V13.01,2013-06-21 01:23:00,
2013-06-20 20:28:00,82.9,67.1,29.98,ENE,77,0.0,2.7,59,0.00,,,0.00,VWS V13.01,2013-06-21 01:28:00,
2013-06-20 20:32:00,82.7,67.4,29.98,ENE,67,2.2,2.2,60,0.00,,,0.00,VWS V13.01,2013-06-21 01:32:00,
2013-06-20 20:37:00,82.6,67.3,29.98,ENE,61,2.7,2.7,60,0.00,,,0.00,VWS V13.01,2013-06-21 01:37:00,
2013-06-20 20:42:00,82.4,67.6,29.98,ENE,70,2.2,2.7,61,0.00,,,0.00,VWS V13.01,2013-06-21 01:42:00,
2013-06-20 20:47:00,82.4,67.6,29.98,ESE,102,0.0,2.7,61,0.00,,,0.00,VWS V13.01,2013-06-21 01:47:00,
2013-06-20 20:52:00,82.2,67.4,29.98,East,100,0.0,0.0,61,0.00,,,0.00,VWS V13.01,2013-06-21 01:52:00,
2013-06-20 20:57:00,82.2,67.9,29.98,ENE,68,2.7,2.7,62,0.00,,,0.00,VWS V13.01,2013-06-21 01:57:00,
2013-06-20 21:02:00,82.0,67.7,29.98,East,88,2.7,2.7,62,0.00,,,0.00,VWS V13.01,2013-06-21 02:02:00,
2013-06-20 21:19:00,81.5,67.2,29.98,NE,55,2.7,3.1,62,0.00,,,0.00,VWS V13.01,2013-06-21 02:19:00,
2013-06-20 21:24:00,81.5,66.8,29.98,ENE,66,2.7,2.7,61,0.00,,,0.00,VWS V13.01,2013-06-21 02:24:00,
2013-06-20 21:29:00,81.5,66.8,29.98,NE,50,0.0,2.7,61,0.00,,,0.00,VWS V13.01,2013-06-21 02:29:00,
2013-06-20 21:34:00,81.5,66.8,29.98,NE,53,2.7,3.1,61,0.00,,,0.00,VWS V13.01,2013-06-21 02:34:00,
2013-06-20 21:39:00,81.5,66.8,29.98,East,85,2.7,2.7,61,0.00,,,0.00,VWS V13.01,2013-06-21 02:39:00,
2013-06-20 21:44:00,81.5,66.3,29.98,ENE,63,2.2,4.0,60,0.00,,,0.00,VWS V13.01,2013-06-21 02:44:00,
2013-06-20 21:49:00,81.5,66.3,29.98,NE,45,2.7,2.7,60,0.00,,,0.00,VWS V13.01,2013-06-21 02:49:00,
2013-06-20 21:54:00,81.5,66.3,29.98,NE,36,0.0,2.2,60,0.00,,,0.00,VWS V13.01,2013-06-21 02:54:00,
2013-06-20 21:59:00,81.5,66.8,29.98,NE,36,0.0,0.0,61,0.00,,,0.00,VWS V13.01,2013-06-21 02:59:00,
2013-06-20 22:04:00,81.3,67.5,29.98,NE,52,0.0,0.0,63,0.00,,,0.00,VWS V13.01,2013-06-21 03:04:00,
2013-06-20 22:09:00,81.1,67.3,29.98,NNE,16,0.0,0.0,63,0.00,,,0.00,VWS V13.01,2013-06-21 03:09:00,
2013-06-20 22:14:00,80.8,67.5,30.01,NNE,16,0.0,0.0,64,0.00,,,0.00,VWS V13.01,2013-06-21 03:14:00,
2013-06-20 22:19:00,80.6,66.8,30.01,ENE,73,2.7,2.7,63,0.00,,,0.00,VWS V13.01,2013-06-21 03:19:00,
2013-06-20 22:24:00,80.4,66.7,30.01,NE,39,0.0,0.0,63,0.00,,,0.00,VWS V13.01,2013-06-21 03:24:00,
2013-06-20 22:29:00,80.4,66.7,30.01,NNE,30,2.2,3.1,63,0.00,,,0.00,VWS V13.01,2013-06-21 03:29:00,
2013-06-20 22:34:00,80.2,66.5,30.01,NE,40,2.7,3.1,63,0.00,,,0.00,VWS V13.01,2013-06-21 03:34:00,
2013-06-20 22:39:00,80.2,66.5,30.01,East,81,4.0,4.0,63,0.00,,,0.00,VWS V13.01,2013-06-21 03:39:00,
2013-06-20 22:44:00,80.2,66.5,30.01,East,80,2.2,2.7,63,0.00,,,0.00,VWS V13.01,2013-06-21 03:44:00,
2013-06-20 22:49:00,80.2,66.5,30.01,ENE,66,0.0,0.0,63,0.00,,,0.00,VWS V13.01,2013-06-21 03:49:00,
2013-06-20 22:53:00,80.0,66.3,30.01,NE,39,0.0,0.0,63,0.00,,,0.00,VWS V13.01,2013-06-21 03:53:00,
2013-06-20 22:58:00,80.0,66.3,30.01,ENE,63,2.7,2.7,63,0.00,,,0.00,VWS V13.01,2013-06-21 03:58:00,
2013-06-20 23:01:00,80.0,66.3,30.01,NE,46,3.1,4.0,63,0.00,,,0.00,VWS V13.01,2013-06-21 04:01:00,
2013-06-20 23:06:00,79.9,67.1,30.01,NE,39,3.1,3.1,65,0.00,,,0.00,VWS V13.01,2013-06-21 04:06:00,
2013-06-20 23:11:00,79.9,67.1,30.01,ENE,57,2.2,2.2,65,0.00,,,0.00,VWS V13.01,2013-06-21 04:11:00,
2013-06-20 23:16:00,79.7,66.4,30.01,East,83,3.1,3.1,64,0.00,,,0.00,VWS V13.01,2013-06-21 04:16:00,
2013-06-20 23:21:00,79.9,66.6,30.01,NE,49,2.2,2.2,64,0.00,,,0.00,VWS V13.01,2013-06-21 04:21:00,
2013-06-20 23:26:00,79.9,66.6,30.01,NE,51,2.7,4.9,64,0.00,,,0.00,VWS V13.01,2013-06-21 04:26:00,
2013-06-20 23:31:00,79.9,67.1,30.01,NE,55,2.7,2.7,65,0.00,,,0.00,VWS V13.01,2013-06-21 04:31:00,
2013-06-20 23:36:00,79.5,66.7,30.01,NE,46,0.0,5.4,65,0.00,,,0.00,VWS V13.01,2013-06-21 04:36:00,
2013-06-20 23:41:00,79.5,66.7,30.01,East,90,0.0,2.7,65,0.00,,,0.00,VWS V13.01,2013-06-21 04:41:00,
2013-06-20 23:46:00,79.3,66.5,30.04,ENE,57,2.2,3.6,65,0.00,,,0.00,VWS V13.01,2013-06-21 04:46:00,
2013-06-20 23:51:00,79.3,67.4,30.04,ENE,57,0.0,0.0,67,0.00,,,0.00,VWS V13.01,2013-06-21 04:51:00,
2013-06-20 23:56:00,79.0,67.1,30.04,ENE,57,0.0,0.0,67,0.00,,,0.00,VWS V13.01,2013-06-21 04:56:00,